Time,TemperatureF,DewpointF,PressureIn,WindDirection,WindDirectionDegrees,WindSpeedMPH,WindSpeedGustMPH,Humidity,HourlyPrecipIn,Conditions,Clouds,dailyrainin,SoftwareType,DateUTC
2013-02-08 00:00:00,58.8,44.9,29.88,WSW,248,0.6,6.0,60,0.00,,,0.00,WUHU216HW,2013-02-08 06:00:00,
2013-02-08 00:05:00,58.8,44.9,29.88,NW,315,5.8,5.8,60,0.00,,,0.00,WUHU216HW,2013-02-08 06:05:00,
2013-02-08 00:10:00,58.8,44.9,29.88,NNW,338,4.2,5.8,60,0.00,,,0.00,WUHU216HW,2013-02-08 06:10:00,
2013-02-08 00:15:00,58.8,45.3,29.87,NW,315,8.9,8.9,61,0.00,,,0.00,WUHU216HW,2013-02-08 06:15:00,
2013-02-08 00:20:00,58.6,45.2,29.88,NW,315,6.0,11.6,61,0.00,,,0.00,WUHU216HW,2013-02-08 06:20:00,
2013-02-08 00:25:00,58.2,45.0,29.87,WNW,293,3.1,11.6,61,0.00,,,0.00,WUHU216HW,2013-02-08 06:25:00,
2013-02-08 00:30:00,58.2,44.8,29.87,WNW,293,6.4,7.3,61,0.00,,,0.00,WUHU216HW,2013-02-08 06:30:00,
2013-02-08 00:35:00,58.1,44.7,29.87,WNW,293,0.0,7.3,61,0.00,,,0.00,WUHU216HW,2013-02-08 06:35:00,
2013-02-08 00:40:00,57.9,44.9,29.87,NNW,338,7.6,7.6,62,0.00,,,0.00,WUHU216HW,2013-02-08 06:40:00,
2013-02-08 00:45:00,57.7,44.7,29.88,WNW,293,6.9,7.6,62,0.00,,,0.00,WUHU216HW,2013-02-08 06:45:00,
2013-02-08 00:50:00,57.5,44.6,29.88,NW,315,4.2,7.6,62,0.00,,,0.00,WUHU216HW,2013-02-08 06:50:00,
2013-02-08 00:55:00,57.3,44.4,29.88,West,270,4.4,9.1,62,0.00,,,0.00,WUHU216HW,2013-02-08 06:55:00,
2013-02-08 01:00:00,57.3,44.4,29.88,NNW,338,2.9,9.1,62,0.00,,,0.00,WUHU216HW,2013-02-08 07:00:00,
2013-02-08 01:05:00,57.0,44.1,29.88,WNW,293,6.2,6.2,62,0.00,,,0.00,WUHU216HW,2013-02-08 07:05:00,
2013-02-08 01:10:00,56.8,43.9,29.88,NW,315,8.0,8.0,62,0.00,,,0.00,WUHU216HW,2013-02-08 07:10:00,
2013-02-08 01:15:00,56.8,43.9,29.88,NNW,338,7.1,8.0,62,0.00,,,0.00,WUHU216HW,2013-02-08 07:15:00,
2013-02-08 01:20:00,56.4,43.5,29.87,NW,315,8.0,8.0,62,0.00,,,0.00,WUHU216HW,2013-02-08 07:20:00,
2013-02-08 01:25:00,56.4,43.5,29.87,NW,315,12.7,12.7,62,0.00,,,0.00,WUHU216HW,2013-02-08 07:25:00,
2013-02-08 01:30:00,56.1,43.6,29.87,NW,315,7.6,12.7,63,0.00,,,0.00,WUHU216HW,2013-02-08 07:30:00,
2013-02-08 01:35:00,56.1,43.6,29.88,WNW,293,4.2,12.7,63,0.00,,,0.00,WUHU216HW,2013-02-08 07:35:00,
2013-02-08 01:40:00,55.9,43.4,29.88,West,270,2.9,7.6,63,0.00,,,0.00,WUHU216HW,2013-02-08 07:40:00,
2013-02-08 01:45:00,55.7,43.3,29.88,NW,315,6.7,10.9,63,0.00,,,0.00,WUHU216HW,2013-02-08 07:45:00,
2013-02-08 01:50:00,55.5,43.5,29.89,NNW,338,3.3,10.9,64,0.00,,,0.00,WUHU216HW,2013-02-08 07:50:00,
2013-02-08 01:55:00,55.4,43.3,29.89,NW,315,5.5,9.1,64,0.00,,,0.00,WUHU216HW,2013-02-08 07:55:00,
2013-02-08 02:00:00,55.2,43.1,29.89,NNW,338,4.6,9.1,64,0.00,,,0.00,WUHU216HW,2013-02-08 08:00:00,
2013-02-08 02:05:00,55.2,43.1,29.90,NW,315,6.7,7.1,64,0.00,,,0.00,WUHU216HW,2013-02-08 08:05:00,
2013-02-08 02:10:00,55.0,43.0,29.90,WNW,293,2.4,6.7,64,0.00,,,0.00,WUHU216HW,2013-02-08 08:10:00,
2013-02-08 02:15:00,54.6,42.6,29.90,NW,315,1.5,2.4,64,0.00,,,0.00,WUHU216HW,2013-02-08 08:15:00,
2013-02-08 02:20:00,54.6,42.6,29.90,NW,315,2.4,8.0,64,0.00,,,0.00,WUHU216HW,2013-02-08 08:20:00,
2013-02-08 02:25:00,54.5,42.5,29.90,NNW,338,2.9,8.0,64,0.00,,,0.00,WUHU216HW,2013-02-08 08:25:00,
2013-02-08 02:30:00,54.3,42.3,29.90,WNW,293,6.4,6.4,64,0.00,,,0.00,WUHU216HW,2013-02-08 08:30:00,
2013-02-08 02:35:00,54.1,42.1,29.90,WNW,293,3.3,6.4,64,0.00,,,0.00,WUHU216HW,2013-02-08 08:35:00,
2013-02-08 02:40:00,54.1,42.1,29.90,WNW,293,3.8,6.4,64,0.00,,,0.00,WUHU216HW,2013-02-08 08:40:00,
2013-02-08 02:45:00,54.1,42.1,29.90,NNW,338,4.9,4.9,64,0.00,,,0.00,WUHU216HW,2013-02-08 08:45:00,
2013-02-08 02:50:00,53.9,42.0,29.90,NW,315,1.3,7.8,64,0.00,,,0.00,WUHU216HW,2013-02-08 08:50:00,
2013-02-08 02:55:00,53.7,41.8,29.90,NNW,338,2.2,7.8,64,0.00,,,0.00,WUHU216HW,2013-02-08 08:55:00,
2013-02-08 03:00:00,53.7,41.8,29.90,WNW,293,5.3,6.9,64,0.00,,,0.00,WUHU216HW,2013-02-08 09:00:00,
2013-02-08 03:05:00,53.4,41.5,29.90,East,90,0.0,6.9,64,0.00,,,0.00,WUHU216HW,2013-02-08 09:05:00,
2013-02-08 03:10:00,53.4,41.5,29.90,NNW,338,0.0,5.8,64,0.00,,,0.00,WUHU216HW,2013-02-08 09:10:00,
2013-02-08 03:15:00,53.4,41.5,29.90,NW,315,4.6,4.6,64,0.00,,,0.00,WUHU216HW,2013-02-08 09:15:00,
2013-02-08 03:20:00,53.2,41.3,29.91,WNW,293,3.3,4.6,64,0.00,,,0.00,WUHU216HW,2013-02-08 09:20:00,
2013-02-08 03:25:00,52.8,41.3,29.90,WNW,293,3.1,5.8,65,0.00,,,0.00,WUHU216HW,2013-02-08 09:25:00,
2013-02-08 03:30:00,52.8,41.3,29.91,NNW,338,1.1,5.8,65,0.00,,,0.00,WUHU216HW,2013-02-08 09:30:00,
2013-02-08 03:35:00,52.7,41.2,29.91,NW,315,2.0,5.8,65,0.00,,,0.00,WUHU216HW,2013-02-08 09:35:00,
2013-02-08 03:40:00,52.5,41.0,29.91,WNW,293,0.0,3.3,65,0.00,,,0.00,WUHU216HW,2013-02-08 09:40:00,
2013-02-08 03:45:00,52.3,40.8,29.91,NW,315,2.2,3.3,65,0.00,,,0.00,WUHU216HW,2013-02-08 09:45:00,
2013-02-08 03:50:00,52.3,40.8,29.91,WNW,293,2.4,3.3,65,0.00,,,0.00,WUHU216HW,2013-02-08 09:50:00,
2013-02-08 03:55:00,51.9,40.5,29.91,WNW,293,2.9,2.9,65,0.00,,,0.00,WUHU216HW,2013-02-08 09:55:00,
2013-02-08 04:00:00,51.9,40.5,29.91,NNW,338,0.0,2.9,65,0.00,,,0.00,WUHU216HW,2013-02-08 10:00:00,
2013-02-08 04:05:00,51.9,40.5,29.91,WNW,293,0.0,2.9,65,0.00,,,0.00,WUHU216HW,2013-02-08 10:05:00,
2013-02-08 04:10:00,51.6,40.1,29.91,NW,315,1.7,4.9,65,0.00,,,0.00,WUHU216HW,2013-02-08 10:10:00,
2013-02-08 04:15:00,51.6,40.1,29.92,NW,315,0.6,5.5,65,0.00,,,0.00,WUHU216HW,2013-02-08 10:15:00,
2013-02-08 04:20:00,51.6,40.1,29.92,NNW,338,2.4,5.5,65,0.00,,,0.00,WUHU216HW,2013-02-08 10:20:00,
2013-02-08 04:25:00,51.6,39.7,29.91,NW,315,0.8,2.4,64,0.00,,,0.00,WUHU216HW,2013-02-08 10:25:00,
2013-02-08 04:30:00,51.4,39.6,29.91,NW,315,2.6,4.2,64,0.00,,,0.00,WUHU216HW,2013-02-08 10:30:00,
2013-02-08 04:35:00,51.4,39.6,29.91,NW,315,3.1,4.2,64,0.00,,,0.00,WUHU216HW,2013-02-08 10:35:00,
2013-02-08 04:40:00,51.2,39.4,29.91,WNW,293,6.0,6.0,64,0.00,,,0.00,WUHU216HW,2013-02-08 10:40:00,
2013-02-08 04:45:00,51.0,39.2,29.92,NW,315,0.0,6.0,64,0.00,,,0.00,WUHU216HW,2013-02-08 10:45:00,
2013-02-08 04:50:00,51.0,39.2,29.92,NNW,338,0.0,6.0,64,0.00,,,0.00,WUHU216HW,2013-02-08 10:50:00,
2013-02-08 04:55:00,50.7,38.9,29.92,WNW,293,0.6,3.1,64,0.00,,,0.00,WUHU216HW,2013-02-08 10:55:00,
2013-02-08 05:00:00,50.7,38.9,29.92,WNW,293,0.0,3.1,64,0.00,,,0.00,WUHU216HW,2013-02-08 11:00:00,
2013-02-08 05:05:00,50.5,38.7,29.92,NW,315,1.7,1.7,64,0.00,,,0.00,WUHU216HW,2013-02-08 11:05:00,
2013-02-08 05:10:00,50.5,38.7,29.92,NW,315,0.0,1.7,64,0.00,,,0.00,WUHU216HW,2013-02-08 11:10:00,
2013-02-08 05:15:00,50.3,38.5,29.92,NW,315,0.0,0.0,64,0.00,,,0.00,WUHU216HW,2013-02-08 11:15:00,
2013-02-08 05:20:00,50.1,38.4,29.92,North,0,1.7,1.7,64,0.00,,,0.00,WUHU216HW,2013-02-08 11:20:00,
2013-02-08 05:25:00,50.1,38.0,29.92,WNW,293,0.0,1.7,64,0.00,,,0.00,WUHU216HW,2013-02-08 11:25:00,
2013-02-08 05:30:00,49.8,38.0,29.92,NNW,338,1.1,1.1,64,0.00,,,0.00,WUHU216HW,2013-02-08 11:30:00,
2013-02-08 05:35:00,49.8,38.4,29.93,NW,315,0.8,1.1,65,0.00,,,0.00,WUHU216HW,2013-02-08 11:35:00,
2013-02-08 05:40:00,49.6,38.3,29.93,WNW,293,0.0,1.7,65,0.00,,,0.00,WUHU216HW,2013-02-08 11:40:00,
2013-02-08 05:45:00,49.6,38.3,29.93,NW,315,0.8,1.7,65,0.00,,,0.00,WUHU216HW,2013-02-08 11:45:00,
2013-02-08 05:50:00,49.4,37.7,29.93,NNW,338,0.0,2.9,64,0.00,,,0.00,WUHU216HW,2013-02-08 11:50:00,
2013-02-08 05:55:00,49.2,37.9,29.94,NW,315,0.6,4.0,65,0.00,,,0.00,WUHU216HW,2013-02-08 11:55:00,
2013-02-08 06:00:00,49.2,37.9,29.94,WNW,293,1.3,4.0,65,0.00,,,0.00,WUHU216HW,2013-02-08 12:00:00,
2013-02-08 06:05:00,49.1,37.7,29.94,WNW,293,1.1,3.8,65,0.00,,,0.00,WUHU216HW,2013-02-08 12:05:00,
2013-02-08 06:10:00,49.1,37.7,29.94,WNW,293,3.1,3.1,65,0.00,,,0.00,WUHU216HW,2013-02-08 12:10:00,
2013-02-08 06:15:00,48.9,38.0,29.95,NW,315,3.8,3.8,66,0.00,,,0.00,WUHU216HW,2013-02-08 12:15:00,
2013-02-08 06:20:00,48.7,37.8,29.95,WNW,293,1.5,3.8,66,0.00,,,0.00,WUHU216HW,2013-02-08 12:20:00,
2013-02-08 06:25:00,48.7,37.8,29.95,WNW,293,1.5,6.2,66,0.00,,,0.00,WUHU216HW,2013-02-08 12:25:00,
2013-02-08 06:30:00,48.7,37.8,29.96,NW,315,0.0,6.2,66,0.00,,,0.00,WUHU216HW,2013-02-08 12:30:00,
2013-02-08 06:35:00,48.5,37.6,29.96,NW,315,1.1,1.5,66,0.00,,,0.00,WUHU216HW,2013-02-08 12:35:00,
2013-02-08 06:40:00,48.5,37.6,29.96,WNW,293,3.8,3.8,66,0.00,,,0.00,WUHU216HW,2013-02-08 12:40:00,
2013-02-08 06:45:00,48.3,37.4,29.96,WNW,293,0.0,3.8,66,0.00,,,0.00,WUHU216HW,2013-02-08 12:45:00,
2013-02-08 06:50:00,48.2,37.3,29.96,WNW,293,0.0,3.8,66,0.00,,,0.00,WUHU216HW,2013-02-08 12:50:00,
2013-02-08 06:55:00,48.0,37.1,29.96,WNW,293,0.0,0.6,66,0.00,,,0.00,WUHU216HW,2013-02-08 12:55:00,
2013-02-08 07:00:00,48.0,37.1,29.96,WNW,293,0.0,0.0,66,0.00,,,0.00,WUHU216HW,2013-02-08 13:00:00,
2013-02-08 07:05:00,48.0,37.1,29.97,WNW,293,0.0,0.0,66,0.00,,,0.00,WUHU216HW,2013-02-08 13:05:00,
2013-02-08 07:10:00,47.6,36.8,29.96,WNW,293,0.0,0.0,66,0.00,,,0.00,WUHU216HW,2013-02-08 13:10:00,
2013-02-08 07:15:00,47.4,36.6,29.97,WNW,293,0.0,0.0,66,0.00,,,0.00,WUHU216HW,2013-02-08 13:15:00,
2013-02-08 07:20:00,47.1,36.3,29.97,West,270,0.0,0.0,66,0.00,,,0.00,WUHU216HW,2013-02-08 13:20:00,
2013-02-08 07:25:00,46.9,36.5,29.97,SW,225,0.0,0.0,67,0.00,,,0.00,WUHU216HW,2013-02-08 13:25:00,
2013-02-08 07:30:00,46.9,36.9,29.97,SW,225,0.0,0.0,68,0.00,,,0.00,WUHU216HW,2013-02-08 13:30:00,
2013-02-08 07:35:00,46.9,37.3,29.97,SW,225,0.0,0.0,69,0.00,,,0.00,WUHU216HW,2013-02-08 13:35:00,
2013-02-08 07:40:00,47.1,37.4,29.97,WSW,248,0.0,0.0,69,0.00,,,0.00,WUHU216HW,2013-02-08 13:40:00,
2013-02-08 07:45:00,47.1,37.4,29.98,WSW,248,0.0,0.0,69,0.00,,,0.00,WUHU216HW,2013-02-08 13:45:00,
2013-02-08 07:50:00,47.6,37.9,29.98,WSW,248,0.0,0.0,69,0.00,,,0.00,WUHU216HW,2013-02-08 13:50:00,
2013-02-08 07:55:00,49.2,39.1,29.98,WSW,248,0.0,0.0,68,0.00,,,0.00,WUHU216HW,2013-02-08 13:55:00,
2013-02-08 08:00:00,49.6,39.0,29.98,WSW,248,0.0,0.0,67,0.00,,,0.00,WUHU216HW,2013-02-08 14:00:00,
2013-02-08 08:05:00,49.8,38.8,29.98,West,270,0.0,0.0,66,0.00,,,0.00,WUHU216HW,2013-02-08 14:05:00,
2013-02-08 08:10:00,49.8,38.8,29.98,WNW,293,1.5,1.5,66,0.00,,,0.00,WUHU216HW,2013-02-08 14:10:00,
2013-02-08 08:15:00,49.8,38.8,29.99,WNW,293,1.7,1.7,66,0.00,,,0.00,WUHU216HW,2013-02-08 14:15:00,
2013-02-08 08:20:00,50.3,39.3,29.98,WNW,293,0.0,1.7,66,0.00,,,0.00,WUHU216HW,2013-02-08 14:20:00,
2013-02-08 08:25:00,54.1,40.9,29.99,WSW,248,1.1,2.6,61,0.00,,,0.00,WUHU216HW,2013-02-08 14:25:00,
2013-02-08 08:30:00,57.3,41.8,29.99,WNW,293,0.6,2.6,56,0.00,,,0.00,WUHU216HW,2013-02-08 14:30:00,
2013-02-08 08:35:00,59.7,42.5,29.99,WNW,293,1.5,1.5,53,0.00,,,0.00,WUHU216HW,2013-02-08 14:35:00,
2013-02-08 08:40:00,62.4,43.5,29.99,West,270,3.1,3.3,50,0.00,,,0.00,WUHU216HW,2013-02-08 14:40:00,
2013-02-08 08:45:00,63.6,42.3,29.99,WNW,293,4.0,4.0,46,0.00,,,0.00,WUHU216HW,2013-02-08 14:45:00,
2013-02-08 08:50:00,64.7,43.3,29.99,NW,315,1.5,4.0,46,0.00,,,0.00,WUHU216HW,2013-02-08 14:50:00,
2013-02-08 08:55:00,66.7,43.4,30.00,NNE,23,2.9,4.0,43,0.00,,,0.00,WUHU216HW,2013-02-08 14:55:00,
2013-02-08 09:00:00,67.6,43.6,30.00,North,0,2.0,6.4,42,0.00,,,0.00,WUHU216HW,2013-02-08 15:00:00,
2013-02-08 09:05:00,68.1,43.5,30.00,NNE,23,1.5,6.4,41,0.00,,,0.00,WUHU216HW,2013-02-08 15:05:00,
2013-02-08 09:10:00,69.4,43.3,30.00,NE,45,3.1,4.4,39,0.00,,,0.00,WUHU216HW,2013-02-08 15:10:00,
2013-02-08 09:15:00,70.5,42.8,30.00,NW,315,0.6,4.4,37,0.00,,,0.00,WUHU216HW,2013-02-08 15:15:00,
2013-02-08 09:20:00,70.8,43.1,30.00,NNW,338,6.4,6.4,37,0.00,,,0.00,WUHU216HW,2013-02-08 15:20:00,
2013-02-08 09:25:00,71.9,44.1,30.00,North,0,0.0,6.4,37,0.00,,,0.00,WUHU216HW,2013-02-08 15:25:00,
2013-02-08 09:30:00,73.2,44.4,30.00,NW,315,1.5,1.5,36,0.00,,,0.00,WUHU216HW,2013-02-08 15:30:00,
2013-02-08 09:35:00,73.5,44.0,30.00,WNW,293,2.2,2.2,35,0.00,,,0.00,WUHU216HW,2013-02-08 15:35:00,
2013-02-08 09:40:00,73.7,43.4,30.00,NW,315,2.0,2.2,34,0.00,,,0.00,WUHU216HW,2013-02-08 15:40:00,
2013-02-08 09:45:00,73.0,42.8,30.00,WSW,248,0.0,2.0,34,0.00,,,0.00,WUHU216HW,2013-02-08 15:45:00,
2013-02-08 09:50:00,72.1,42.8,30.00,NE,45,0.0,2.0,35,0.00,,,0.00,WUHU216HW,2013-02-08 15:50:00,
2013-02-08 09:55:00,70.1,41.0,30.00,NNW,338,1.7,2.4,35,0.00,,,0.00,WUHU216HW,2013-02-08 15:55:00,
2013-02-08 10:00:00,68.9,39.9,30.01,NNW,338,3.1,3.1,35,0.00,,,0.00,WUHU216HW,2013-02-08 16:00:00,
2013-02-08 10:05:00,68.0,39.8,30.01,NE,45,3.5,3.5,36,0.00,,,0.00,WUHU216HW,2013-02-08 16:05:00,
2013-02-08 10:10:00,67.2,38.4,30.01,NNE,23,2.2,3.5,35,0.00,,,0.00,WUHU216HW,2013-02-08 16:10:00,
2013-02-08 10:15:00,66.7,38.7,30.01,ENE,68,0.0,2.6,36,0.00,,,0.00,WUHU216HW,2013-02-08 16:15:00,
2013-02-08 10:20:00,66.5,38.6,30.01,ENE,68,4.0,4.0,36,0.00,,,0.00,WUHU216HW,2013-02-08 16:20:00,
2013-02-08 10:25:00,65.8,37.9,30.01,East,90,3.8,4.0,36,0.00,,,0.00,WUHU216HW,2013-02-08 16:25:00,
2013-02-08 10:30:00,65.3,37.4,30.01,ENE,68,2.2,3.8,36,0.00,,,0.00,WUHU216HW,2013-02-08 16:30:00,
2013-02-08 10:35:00,64.9,37.1,30.00,NE,45,8.7,8.7,36,0.00,,,0.00,WUHU216HW,2013-02-08 16:35:00,
2013-02-08 10:40:00,64.5,36.8,30.00,North,0,3.5,8.7,36,0.00,,,0.00,WUHU216HW,2013-02-08 16:40:00,
2013-02-08 10:45:00,64.4,36.6,30.00,NE,45,10.7,10.7,36,0.00,,,0.00,WUHU216HW,2013-02-08 16:45:00,
2013-02-08 10:50:00,64.2,37.2,30.00,ENE,68,3.8,10.7,37,0.00,,,0.00,WUHU216HW,2013-02-08 16:50:00,
2013-02-08 10:55:00,64.2,37.2,30.00,ENE,68,7.1,10.7,37,0.00,,,0.00,WUHU216HW,2013-02-08 16:55:00,
2013-02-08 11:00:00,64.2,37.2,30.00,ESE,113,1.1,7.1,37,0.00,,,0.00,WUHU216HW,2013-02-08 17:00:00,
2013-02-08 11:05:00,64.4,37.4,30.00,East,90,11.8,11.8,37,0.00,,,0.00,WUHU216HW,2013-02-08 17:05:00,
2013-02-08 11:10:00,64.5,36.8,29.99,NNE,23,5.1,11.8,36,0.00,,,0.00,WUHU216HW,2013-02-08 17:10:00,
2013-02-08 11:15:00,64.7,37.7,29.99,East,90,2.4,7.8,37,0.00,,,0.00,WUHU216HW,2013-02-08 17:15:00,
2013-02-08 11:20:00,64.9,37.1,29.99,East,90,1.5,5.1,36,0.00,,,0.00,WUHU216HW,2013-02-08 17:20:00,
2013-02-08 11:25:00,65.1,37.3,30.00,SE,135,0.0,10.2,36,0.00,,,0.00,WUHU216HW,2013-02-08 17:25:00,
2013-02-08 11:30:00,65.1,37.3,29.99,ESE,113,1.7,10.2,36,0.00,,,0.00,WUHU216HW,2013-02-08 17:30:00,
2013-02-08 11:35:00,65.4,37.6,29.99,ENE,68,4.4,4.4,36,0.00,,,0.00,WUHU216HW,2013-02-08 17:35:00,
2013-02-08 11:40:00,65.4,37.6,29.99,ESE,113,0.0,4.4,36,0.00,,,0.00,WUHU216HW,2013-02-08 17:40:00,
2013-02-08 11:45:00,65.8,36.5,29.99,ESE,113,3.1,4.9,34,0.00,,,0.00,WUHU216HW,2013-02-08 17:45:00,
2013-02-08 11:50:00,66.0,36.6,29.98,NE,45,2.6,4.9,34,0.00,,,0.00,WUHU216HW,2013-02-08 17:50:00,
2013-02-08 11:55:00,66.0,36.6,29.99,ENE,68,3.3,6.9,34,0.00,,,0.00,WUHU216HW,2013-02-08 17:55:00,
2013-02-08 12:00:00,66.2,36.8,29.98,East,90,2.9,6.9,34,0.00,,,0.00,WUHU216HW,2013-02-08 18:00:00,
2013-02-08 12:05:00,66.3,36.2,29.99,NE,45,4.0,8.0,33,0.00,,,0.00,WUHU216HW,2013-02-08 18:05:00,
2013-02-08 12:10:00,66.3,36.2,29.98,ESE,113,0.0,8.0,33,0.00,,,0.00,WUHU216HW,2013-02-08 18:10:00,
2013-02-08 12:15:00,66.3,36.2,29.98,East,90,7.3,7.3,33,0.00,,,0.00,WUHU216HW,2013-02-08 18:15:00,
2013-02-08 12:21:00,66.5,35.7,29.98,SE,135,3.8,7.3,32,0.00,,,0.00,WUHU216HW,2013-02-08 18:21:00,
2013-02-08 12:26:00,66.5,35.7,29.97,ESE,113,5.8,7.3,32,0.00,,,0.00,WUHU216HW,2013-02-08 18:26:00,
2013-02-08 12:31:00,66.7,36.5,29.97,NNW,338,4.9,7.3,33,0.00,,,0.00,WUHU216HW,2013-02-08 18:31:00,
2013-02-08 12:36:00,66.7,35.8,29.97,ESE,113,5.8,5.8,32,0.00,,,0.00,WUHU216HW,2013-02-08 18:36:00,
2013-02-08 12:41:00,66.7,36.5,29.96,ESE,113,2.4,5.8,33,0.00,,,0.00,WUHU216HW,2013-02-08 18:41:00,
2013-02-08 12:46:00,67.1,36.1,29.96,NE,45,5.5,9.1,32,0.00,,,0.00,WUHU216HW,2013-02-08 18:46:00,
2013-02-08 12:51:00,67.2,36.3,29.96,NE,45,2.0,9.1,32,0.00,,,0.00,WUHU216HW,2013-02-08 18:51:00,
2013-02-08 12:56:00,67.6,36.5,29.95,North,0,0.0,5.5,32,0.00,,,0.00,WUHU216HW,2013-02-08 18:56:00,
2013-02-08 13:01:00,67.8,35.9,29.95,NE,45,2.4,3.1,31,0.00,,,0.00,WUHU216HW,2013-02-08 19:01:00,
2013-02-08 13:06:00,67.8,35.9,29.95,NW,315,2.0,4.9,31,0.00,,,0.00,WUHU216HW,2013-02-08 19:06:00,
2013-02-08 13:11:00,68.1,36.3,29.94,ESE,113,6.0,6.0,31,0.00,,,0.00,WUHU216HW,2013-02-08 19:11:00,
2013-02-08 13:16:00,68.1,37.0,29.94,SE,135,0.4,6.0,32,0.00,,,0.00,WUHU216HW,2013-02-08 19:16:00,
2013-02-08 13:21:00,68.3,36.4,29.94,NNE,23,4.4,8.2,31,0.00,,,0.00,WUHU216HW,2013-02-08 19:21:00,
2013-02-08 13:26:00,68.3,35.7,29.93,NE,45,3.8,8.2,30,0.00,,,0.00,WUHU216HW,2013-02-08 19:26:00,
2013-02-08 13:31:00,68.5,35.9,29.93,NE,45,1.5,6.9,30,0.00,,,0.00,WUHU216HW,2013-02-08 19:31:00,
2013-02-08 13:36:00,68.5,36.6,29.93,NNW,338,0.0,6.7,31,0.00,,,0.00,WUHU216HW,2013-02-08 19:36:00,
2013-02-08 13:41:00,68.7,36.0,29.92,NE,45,1.3,5.1,30,0.00,,,0.00,WUHU216HW,2013-02-08 19:41:00,
2013-02-08 13:46:00,68.9,36.2,29.92,NE,45,2.0,7.3,30,0.00,,,0.00,WUHU216HW,2013-02-08 19:46:00,
2013-02-08 13:51:00,69.2,36.5,29.92,East,90,6.4,7.3,30,0.00,,,0.00,WUHU216HW,2013-02-08 19:51:00,
2013-02-08 13:56:00,69.4,36.7,29.92,NNE,23,0.0,7.3,30,0.00,,,0.00,WUHU216HW,2013-02-08 19:56:00,
2013-02-08 14:01:00,69.6,35.8,29.91,East,90,0.0,6.4,29,0.00,,,0.00,WUHU216HW,2013-02-08 20:01:00,
2013-02-08 14:06:00,69.6,35.8,29.91,NE,45,5.5,5.5,29,0.00,,,0.00,WUHU216HW,2013-02-08 20:06:00,
2013-02-08 14:11:00,69.9,36.1,29.91,NNW,338,3.5,5.5,29,0.00,,,0.00,WUHU216HW,2013-02-08 20:11:00,
2013-02-08 14:16:00,69.9,35.1,29.91,NE,45,0.0,7.1,28,0.00,,,0.00,WUHU216HW,2013-02-08 20:16:00,
2013-02-08 14:21:00,69.9,35.1,29.91,East,90,7.1,7.1,28,0.00,,,0.00,WUHU216HW,2013-02-08 20:21:00,
2013-02-08 14:26:00,69.6,33.8,29.90,East,90,7.1,7.6,27,0.00,,,0.00,WUHU216HW,2013-02-08 20:26:00,
2013-02-08 14:31:00,69.6,33.8,29.90,ENE,68,0.0,7.6,27,0.00,,,0.00,WUHU216HW,2013-02-08 20:31:00,
2013-02-08 14:36:00,69.6,33.8,29.90,ENE,68,4.0,6.4,27,0.00,,,0.00,WUHU216HW,2013-02-08 20:36:00,
2013-02-08 14:41:00,69.8,34.0,29.90,NE,45,5.5,6.4,27,0.00,,,0.00,WUHU216HW,2013-02-08 20:41:00,
2013-02-08 14:46:00,70.1,34.3,29.90,NE,45,1.5,5.5,27,0.00,,,0.00,WUHU216HW,2013-02-08 20:46:00,
2013-02-08 14:51:00,70.3,33.4,29.90,ESE,113,5.5,5.5,26,0.00,,,0.00,WUHU216HW,2013-02-08 20:51:00,
2013-02-08 14:56:00,70.1,34.3,29.89,ESE,113,0.0,5.5,27,0.00,,,0.00,WUHU216HW,2013-02-08 20:56:00,
2013-02-08 15:01:00,70.1,34.3,29.89,NE,45,2.0,5.5,27,0.00,,,0.00,WUHU216HW,2013-02-08 21:01:00,
2013-02-08 15:06:00,69.9,34.1,29.89,ESE,113,6.7,6.7,27,0.00,,,0.00,WUHU216HW,2013-02-08 21:06:00,
2013-02-08 15:11:00,69.8,34.0,29.88,East,90,0.0,6.7,27,0.00,,,0.00,WUHU216HW,2013-02-08 21:11:00,
2013-02-08 15:16:00,69.8,34.0,29.88,East,90,0.0,6.7,27,0.00,,,0.00,WUHU216HW,2013-02-08 21:16:00,
2013-02-08 15:21:00,69.8,36.0,29.88,North,0,6.0,6.0,29,0.00,,,0.00,WUHU216HW,2013-02-08 21:21:00,
2013-02-08 15:26:00,69.9,35.1,29.88,ENE,68,2.0,6.0,28,0.00,,,0.00,WUHU216HW,2013-02-08 21:26:00,
2013-02-08 15:31:00,70.5,34.6,29.88,NE,45,2.0,6.0,27,0.00,,,0.00,WUHU216HW,2013-02-08 21:31:00,
2013-02-08 15:36:00,71.2,34.2,29.88,North,0,2.6,3.5,26,0.00,,,0.00,WUHU216HW,2013-02-08 21:36:00,
2013-02-08 15:41:00,71.2,34.2,29.88,ESE,113,0.0,5.1,26,0.00,,,0.00,WUHU216HW,2013-02-08 21:41:00,
2013-02-08 15:46:00,72.1,33.9,29.87,ESE,113,1.3,6.0,25,0.00,,,0.00,WUHU216HW,2013-02-08 21:46:00,
2013-02-08 15:51:00,73.2,35.9,29.87,ENE,68,0.0,6.0,26,0.00,,,0.00,WUHU216HW,2013-02-08 21:51:00,
2013-02-08 15:56:00,75.0,35.4,29.87,ESE,113,1.5,2.4,24,0.00,,,0.00,WUHU216HW,2013-02-08 21:56:00,
2013-02-08 16:01:00,76.2,36.4,29.87,NE,45,2.4,6.4,24,0.00,,,0.00,WUHU216HW,2013-02-08 22:01:00,
2013-02-08 16:06:00,76.4,36.6,29.87,NW,315,4.2,6.4,24,0.00,,,0.00,WUHU216HW,2013-02-08 22:06:00,
2013-02-08 16:11:00,76.2,36.4,29.87,NE,45,1.3,4.2,24,0.00,,,0.00,WUHU216HW,2013-02-08 22:11:00,
2013-02-08 16:16:00,76.4,36.6,29.86,NNE,23,0.0,5.5,24,0.00,,,0.00,WUHU216HW,2013-02-08 22:16:00,
2013-02-08 16:21:00,76.1,36.3,29.86,East,90,5.8,5.8,24,0.00,,,0.00,WUHU216HW,2013-02-08 22:21:00,
2013-02-08 16:26:00,75.9,36.1,29.86,North,0,1.3,5.8,24,0.00,,,0.00,WUHU216HW,2013-02-08 22:26:00,
2013-02-08 16:31:00,75.3,35.7,29.86,ESE,113,0.0,5.3,24,0.00,,,0.00,WUHU216HW,2013-02-08 22:31:00,
2013-02-08 16:36:00,74.4,34.9,29.86,NNE,23,4.0,5.3,24,0.00,,,0.00,WUHU216HW,2013-02-08 22:36:00,
2013-02-08 16:41:00,74.1,35.6,29.86,East,90,2.6,4.0,25,0.00,,,0.00,WUHU216HW,2013-02-08 22:41:00,
2013-02-08 16:46:00,73.5,35.2,29.86,ENE,68,0.0,4.9,25,0.00,,,0.00,WUHU216HW,2013-02-08 22:46:00,
2013-02-08 16:51:00,73.0,34.7,29.86,NE,45,4.0,4.9,25,0.00,,,0.00,WUHU216HW,2013-02-08 22:51:00,
2013-02-08 16:56:00,72.5,34.2,29.86,ESE,113,7.6,7.6,25,0.00,,,0.00,WUHU216HW,2013-02-08 22:56:00,
2013-02-08 17:01:00,71.2,33.2,29.86,ESE,113,4.9,7.6,25,0.00,,,0.00,WUHU216HW,2013-02-08 23:01:00,
2013-02-08 17:06:00,70.5,33.6,29.86,East,90,4.4,6.0,26,0.00,,,0.00,WUHU216HW,2013-02-08 23:06:00,
2013-02-08 17:11:00,70.8,34.9,29.86,ESE,113,1.7,6.0,27,0.00,,,0.00,WUHU216HW,2013-02-08 23:11:00,
2013-02-08 17:16:00,71.2,34.2,29.86,ESE,113,4.9,6.0,26,0.00,,,0.00,WUHU216HW,2013-02-08 23:16:00,
2013-02-08 17:21:00,70.7,33.7,29.86,ESE,113,4.2,6.0,26,0.00,,,0.00,WUHU216HW,2013-02-08 23:21:00,
2013-02-08 17:26:00,69.9,33.1,29.86,East,90,5.8,5.8,26,0.00,,,0.00,WUHU216HW,2013-02-08 23:26:00,
2013-02-08 17:31:00,68.7,33.0,29.86,ESE,113,2.4,5.8,27,0.00,,,0.00,WUHU216HW,2013-02-08 23:31:00,
2013-02-08 17:36:00,68.1,32.5,29.86,ESE,113,6.9,7.8,27,0.00,,,0.00,WUHU216HW,2013-02-08 23:36:00,
2013-02-08 17:41:00,67.4,32.0,29.86,ESE,113,6.4,7.8,27,0.00,,,0.00,WUHU216HW,2013-02-08 23:41:00,
2013-02-08 17:46:00,66.5,32.2,29.86,ESE,113,2.9,6.4,28,0.00,,,0.00,WUHU216HW,2013-02-08 23:46:00,
2013-02-08 17:51:00,66.0,33.8,29.86,East,90,3.3,3.3,30,0.00,,,0.00,WUHU216HW,2013-02-08 23:51:00,
2013-02-08 17:56:00,65.6,33.3,29.86,ESE,113,4.2,4.2,30,0.00,,,0.00,WUHU216HW,2013-02-08 23:56:00,
2013-02-08 18:01:00,65.1,33.7,29.86,ESE,113,2.4,4.2,31,0.00,,,0.00,WUHU216HW,2013-02-09 00:01:00,
2013-02-08 18:06:00,64.7,33.4,29.86,East,90,2.2,3.1,31,0.00,,,0.00,WUHU216HW,2013-02-09 00:06:00,
2013-02-08 18:11:00,64.5,33.9,29.86,ENE,68,0.6,3.1,32,0.00,,,0.00,WUHU216HW,2013-02-09 00:11:00,
2013-02-08 18:16:00,64.2,33.6,29.86,ENE,68,0.0,1.7,32,0.00,,,0.00,WUHU216HW,2013-02-09 00:16:00,
2013-02-08 18:21:00,63.6,33.8,29.86,East,90,3.1,3.1,33,0.00,,,0.00,WUHU216HW,2013-02-09 00:21:00,
2013-02-08 18:26:00,63.3,34.2,29.86,East,90,1.1,3.1,34,0.00,,,0.00,WUHU216HW,2013-02-09 00:26:00,
2013-02-08 18:31:00,62.9,33.9,29.86,East,90,0.0,1.7,34,0.00,,,0.00,WUHU216HW,2013-02-09 00:31:00,
2013-02-08 18:36:00,62.6,34.3,29.86,ESE,113,0.0,1.1,35,0.00,,,0.00,WUHU216HW,2013-02-09 00:36:00,
2013-02-08 18:41:00,62.2,34.7,29.86,East,90,0.0,0.0,36,0.00,,,0.00,WUHU216HW,2013-02-09 00:41:00,
2013-02-08 18:46:00,61.7,35.6,29.86,East,90,0.0,0.0,38,0.00,,,0.00,WUHU216HW,2013-02-09 00:46:00,
2013-02-08 18:51:00,61.1,35.2,29.86,East,90,0.0,0.0,38,0.00,,,0.00,WUHU216HW,2013-02-09 00:51:00,
2013-02-08 18:56:00,60.9,35.6,29.86,East,90,0.0,0.0,39,0.00,,,0.00,WUHU216HW,2013-02-09 00:56:00,
2013-02-08 19:01:00,60.6,35.4,29.86,East,90,0.0,0.0,39,0.00,,,0.00,WUHU216HW,2013-02-09 01:01:00,
2013-02-08 19:06:00,60.0,34.9,29.86,East,90,0.0,0.0,39,0.00,,,0.00,WUHU216HW,2013-02-09 01:06:00,
2013-02-08 19:11:00,59.9,35.5,29.86,East,90,0.0,0.0,40,0.00,,,0.00,WUHU216HW,2013-02-09 01:11:00,
2013-02-08 19:16:00,59.5,34.4,29.86,ENE,68,0.8,1.5,39,0.00,,,0.00,WUHU216HW,2013-02-09 01:16:00,
2013-02-08 19:21:00,59.5,34.4,29.86,East,90,0.0,3.3,39,0.00,,,0.00,WUHU216HW,2013-02-09 01:21:00,
2013-02-08 19:26:00,59.1,33.4,29.86,East,90,0.6,3.3,38,0.00,,,0.00,WUHU216HW,2013-02-09 01:26:00,
2013-02-08 19:31:00,58.8,33.8,29.86,ESE,113,0.0,1.3,39,0.00,,,0.00,WUHU216HW,2013-02-09 01:31:00,
2013-02-08 19:36:00,58.8,33.8,29.86,East,90,0.0,1.1,39,0.00,,,0.00,WUHU216HW,2013-02-09 01:36:00,
2013-02-08 19:41:00,58.8,34.5,29.86,ENE,68,1.1,1.1,40,0.00,,,0.00,WUHU216HW,2013-02-09 01:41:00,
2013-02-08 19:46:00,58.8,34.5,29.86,ENE,68,0.6,1.1,40,0.00,,,0.00,WUHU216HW,2013-02-09 01:46:00,
2013-02-08 19:51:00,58.6,34.3,29.86,ENE,68,0.0,1.1,40,0.00,,,0.00,WUHU216HW,2013-02-09 01:51:00,
2013-02-08 19:56:00,58.4,34.2,29.86,ENE,68,0.0,1.3,40,0.00,,,0.00,WUHU216HW,2013-02-09 01:56:00,
2013-02-08 20:01:00,58.2,34.0,29.86,ENE,68,0.0,1.3,40,0.00,,,0.00,WUHU216HW,2013-02-09 02:01:00,
2013-02-08 20:06:00,58.1,33.8,29.86,ENE,68,0.0,0.8,40,0.00,,,0.00,WUHU216HW,2013-02-09 02:06:00,
2013-02-08 20:11:00,57.7,34.1,29.86,ENE,68,0.0,0.0,41,0.00,,,0.00,WUHU216HW,2013-02-09 02:11:00,
2013-02-08 20:16:00,57.5,35.1,29.86,ENE,68,0.0,0.0,43,0.00,,,0.00,WUHU216HW,2013-02-09 02:16:00,
2013-02-08 20:21:00,57.3,34.9,29.86,ENE,68,0.0,0.0,43,0.00,,,0.00,WUHU216HW,2013-02-09 02:21:00,
2013-02-08 20:26:00,57.0,34.6,29.86,ENE,68,0.0,0.0,43,0.00,,,0.00,WUHU216HW,2013-02-09 02:26:00,
2013-02-08 20:31:00,56.8,34.4,29.86,ENE,68,0.0,0.0,43,0.00,,,0.00,WUHU216HW,2013-02-09 02:31:00,
2013-02-08 20:36:00,56.4,34.7,29.86,East,90,0.0,0.0,44,0.00,,,0.00,WUHU216HW,2013-02-09 02:36:00,
2013-02-08 20:41:00,56.3,34.5,29.86,East,90,0.0,0.0,44,0.00,,,0.00,WUHU216HW,2013-02-09 02:41:00,
2013-02-08 20:46:00,55.9,33.6,29.87,East,90,0.0,0.0,43,0.00,,,0.00,WUHU216HW,2013-02-09 02:46:00,
2013-02-08 20:51:00,55.7,33.4,29.87,East,90,0.0,0.0,43,0.00,,,0.00,WUHU216HW,2013-02-09 02:51:00,
2013-02-08 20:56:00,55.2,32.9,29.87,East,90,0.0,0.0,43,0.00,,,0.00,WUHU216HW,2013-02-09 02:56:00,
2013-02-08 21:01:00,54.8,32.6,29.87,East,90,0.0,0.0,43,0.00,,,0.00,WUHU216HW,2013-02-09 03:01:00,
2013-02-08 21:06:00,54.5,31.6,29.87,East,90,0.0,0.0,42,0.00,,,0.00,WUHU216HW,2013-02-09 03:06:00,
2013-02-08 21:11:00,54.1,32.5,29.87,East,90,0.0,0.0,44,0.00,,,0.00,WUHU216HW,2013-02-09 03:11:00,
2013-02-08 21:17:00,53.7,32.2,29.87,East,90,0.0,0.0,44,0.00,,,0.00,WUHU216HW,2013-02-09 03:17:00,
2013-02-08 21:22:00,53.2,33.4,29.87,East,90,0.0,0.0,47,0.00,,,0.00,WUHU216HW,2013-02-09 03:22:00,
2013-02-08 21:27:00,52.8,33.0,29.87,East,90,0.0,0.0,47,0.00,,,0.00,WUHU216HW,2013-02-09 03:27:00,
2013-02-08 21:32:00,52.7,32.9,29.87,East,90,0.0,0.0,47,0.00,,,0.00,WUHU216HW,2013-02-09 03:32:00,
2013-02-08 21:37:00,52.3,32.6,29.87,East,90,0.0,0.0,47,0.00,,,0.00,WUHU216HW,2013-02-09 03:37:00,
2013-02-08 21:42:00,52.3,32.6,29.87,East,90,0.0,0.0,47,0.00,,,0.00,WUHU216HW,2013-02-09 03:42:00,
2013-02-08 21:47:00,52.1,32.4,29.87,East,90,0.0,0.0,47,0.00,,,0.00,WUHU216HW,2013-02-09 03:47:00,
2013-02-08 21:52:00,51.8,32.6,29.87,East,90,0.0,0.0,48,0.00,,,0.00,WUHU216HW,2013-02-09 03:52:00,
2013-02-08 21:57:00,51.6,32.5,29.87,East,90,0.0,0.0,48,0.00,,,0.00,WUHU216HW,2013-02-09 03:57:00,
2013-02-08 22:02:00,51.6,33.0,29.87,East,90,0.0,0.0,49,0.00,,,0.00,WUHU216HW,2013-02-09 04:02:00,
2013-02-08 22:07:00,51.4,32.9,29.87,East,90,0.0,0.0,49,0.00,,,0.00,WUHU216HW,2013-02-09 04:07:00,
2013-02-08 22:12:00,51.4,32.9,29.87,East,90,0.0,0.0,49,0.00,,,0.00,WUHU216HW,2013-02-09 04:12:00,
2013-02-08 22:17:00,51.4,32.9,29.87,East,90,0.0,0.0,49,0.00,,,0.00,WUHU216HW,2013-02-09 04:17:00,
2013-02-08 22:22:00,51.4,32.9,29.87,East,90,0.0,0.0,49,0.00,,,0.00,WUHU216HW,2013-02-09 04:22:00,
2013-02-08 22:27:00,51.6,33.6,29.86,East,90,0.0,0.0,50,0.00,,,0.00,WUHU216HW,2013-02-09 04:27:00,
2013-02-08 22:32:00,51.6,34.0,29.86,East,90,0.0,0.0,51,0.00,,,0.00,WUHU216HW,2013-02-09 04:32:00,
2013-02-08 22:37:00,51.6,35.4,29.86,East,90,0.0,0.0,54,0.00,,,0.00,WUHU216HW,2013-02-09 04:37:00,
2013-02-08 22:42:00,51.9,36.2,29.86,East,90,0.0,0.0,55,0.00,,,0.00,WUHU216HW,2013-02-09 04:42:00,
2013-02-08 22:47:00,51.9,35.7,29.87,East,90,0.0,0.0,54,0.00,,,0.00,WUHU216HW,2013-02-09 04:47:00,
2013-02-08 22:52:00,52.1,35.4,29.86,East,90,0.0,0.0,53,0.00,,,0.00,WUHU216HW,2013-02-09 04:52:00,
2013-02-08 22:57:00,52.3,35.1,29.87,ESE,113,0.0,0.0,52,0.00,,,0.00,WUHU216HW,2013-02-09 04:57:00,
2013-02-08 23:00:00,52.3,34.7,29.87,ESE,113,0.0,0.0,51,0.00,,,0.00,WUHU216HW,2013-02-09 05:00:00,
2013-02-08 23:05:00,52.5,34.8,29.87,ESE,113,0.0,0.0,51,0.00,,,0.00,WUHU216HW,2013-02-09 05:05:00,
2013-02-08 23:10:00,52.7,35.0,29.86,ESE,113,0.0,0.0,51,0.00,,,0.00,WUHU216HW,2013-02-09 05:10:00,
2013-02-08 23:15:00,52.7,35.0,29.86,ESE,113,0.0,0.0,51,0.00,,,0.00,WUHU216HW,2013-02-09 05:15:00,
2013-02-08 23:20:00,52.8,35.2,29.86,ESE,113,0.0,0.0,51,0.00,,,0.00,WUHU216HW,2013-02-09 05:20:00,
2013-02-08 23:25:00,52.8,34.7,29.86,ESE,113,0.0,0.0,50,0.00,,,0.00,WUHU216HW,2013-02-09 05:25:00,
2013-02-08 23:30:00,52.8,35.2,29.86,ESE,113,0.0,0.0,51,0.00,,,0.00,WUHU216HW,2013-02-09 05:30:00,
2013-02-08 23:35:00,52.7,34.6,29.86,ESE,113,0.0,0.0,50,0.00,,,0.00,WUHU216HW,2013-02-09 05:35:00,
2013-02-08 23:40:00,52.7,35.0,29.85,ESE,113,0.0,0.0,51,0.00,,,0.00,WUHU216HW,2013-02-09 05:40:00,
2013-02-08 23:45:00,52.7,35.0,29.85,ESE,113,0.0,0.0,51,0.00,,,0.00,WUHU216HW,2013-02-09 05:45:00,
2013-02-08 23:50:00,52.8,35.2,29.85,ESE,113,0.0,0.0,51,0.00,,,0.00,WUHU216HW,2013-02-09 05:50:00,
2013-02-08 23:55:00,52.8,35.6,29.85,ESE,113,0.0,0.0,52,0.00,,,0.00,WUHU216HW,2013-02-09 05:55:00,